| time (UTC) | temp F | wind direction | speed MPH | gust MPH | rain 1hr in | rain 24hr in | rain mn in | humidity % | barometer mb |
| 20260510144759 | 49 | 216 | 0.0 | 0.0 | 0.00 | 0.00 | 0.00 | 76 | 1027.9 |
| 20260510144256 | 48 | 278 | 1.0 | 1.0 | 0.00 | 0.00 | 0.00 | 79 | 1027.8 |
| 20260510143755 | 47 | 329 | 1.0 | 2.0 | 0.00 | 0.00 | 0.00 | 80 | 1027.9 |
| 20260510143252 | 47 | 239 | 0.0 | 0.0 | 0.00 | 0.00 | 0.00 | 85 | 1027.8 |
| 20260510142749 | 46 | 273 | 0.0 | 0.0 | 0.00 | 0.00 | 0.00 | 91 | 1027.9 |
| 20260510142245 | 45 | 214 | 0.0 | 0.0 | 0.00 | 0.00 | 0.00 | 94 | 1028.1 |
| 20260510141743 | 44 | 232 | 0.0 | 0.0 | 0.00 | 0.00 | 0.00 | 95 | 1028.0 |
| 20260510141241 | 43 | 232 | 0.0 | 0.0 | 0.00 | 0.00 | 0.00 | 95 | 1027.9 |
| 20260510140737 | 43 | 233 | 0.0 | 0.0 | 0.00 | 0.00 | 0.00 | 95 | 1027.8 |
| 20260510140232 | 42 | 228 | 0.0 | 0.0 | 0.00 | 0.00 | 0.00 | 95 | 1028.1 |
| 20260510135726 | 42 | 214 | 0.0 | 0.0 | 0.00 | 0.00 | 0.00 | 95 | 1028.0 |
| 20260510135222 | 40 | 249 | 0.0 | 0.0 | 0.00 | 0.00 | 0.00 | 95 | 1028.1 |
| 20260510134720 | 40 | 247 | 0.0 | 0.0 | 0.00 | 0.00 | 0.00 | 95 | 1028.4 |
| 20260510134217 | 40 | 251 | 0.0 | 0.0 | 0.00 | 0.00 | 0.00 | 95 | 1028.4 |
| 20260510133712 | 39 | 311 | 1.0 | 1.0 | 0.00 | 0.00 | 0.00 | 95 | 1028.3 |
| 20260510133208 | 39 | 317 | 1.0 | 1.0 | 0.00 | 0.00 | 0.00 | 95 | 1028.3 |
| 20260510132705 | 38 | 277 | 0.0 | 0.0 | 0.00 | 0.00 | 0.00 | 95 | 1028.1 |
| 20260510132202 | 38 | 238 | 0.0 | 0.0 | 0.00 | 0.00 | 0.00 | 95 | 1028.3 |
| 20260510131700 | 38 | 237 | 0.0 | 0.0 | 0.00 | 0.00 | 0.00 | 95 | 1028.0 |
| 20260510131158 | 37 | 237 | 0.0 | 0.0 | 0.00 | 0.00 | 0.00 | 95 | 1028.3 |
| 20260510130653 | 36 | 238 | 0.0 | 0.0 | 0.00 | 0.00 | 0.00 | 95 | 1028.1 |
| 20260510130150 | 36 | 238 | 0.0 | 0.0 | 0.00 | 0.00 | 0.00 | 95 | 1028.2 |
| 20260510125647 | 36 | 237 | 0.0 | 0.0 | 0.00 | 0.00 | 0.00 | 95 | 1028.2 |
| 20260510125143 | 36 | 232 | 0.0 | 0.0 | 0.00 | 0.00 | 0.00 | 95 | 1028.1 |
| 20260510124640 | 36 | 241 | 0.0 | 0.0 | 0.00 | 0.00 | 0.00 | 95 | 1028.3 |
| 20260510124137 | 36 | 253 | 0.0 | 0.0 | 0.00 | 0.00 | 0.00 | 95 | 1028.3 |
| 20260510123632 | 36 | 228 | 0.0 | 0.0 | 0.00 | 0.00 | 0.00 | 95 | 1028.3 |
| 20260510123129 | 36 | 227 | 0.0 | 0.0 | 0.00 | 0.00 | 0.00 | 95 | 1028.1 |
| 20260510122625 | 36 | 236 | 0.0 | 0.0 | 0.00 | 0.00 | 0.00 | 95 | 1028.3 |
| 20260510122121 | 36 | 235 | 0.0 | 0.0 | 0.00 | 0.00 | 0.00 | 95 | 1028.2 |
| 20260510121618 | 37 | 224 | 0.0 | 0.0 | 0.00 | 0.00 | 0.00 | 95 | 1028.2 |
| 20260510121115 | 36 | 193 | 0.0 | 0.0 | 0.00 | 0.00 | 0.00 | 95 | 1028.3 |
| 20260510120613 | 35 | 186 | 0.0 | 1.0 | 0.00 | 0.00 | 0.00 | 94 | 1028.2 |
| 20260510120108 | 35 | 231 | 0.0 | 0.0 | 0.00 | 0.00 | 0.00 | 94 | 1028.1 |
| 20260510115605 | 36 | 221 | 0.0 | 0.0 | 0.00 | 0.00 | 0.00 | 94 | 1028.2 |
| 20260510115102 | 36 | 217 | 0.0 | 0.0 | 0.00 | 0.00 | 0.00 | 95 | 1028.4 |
| 20260510114558 | 35 | 247 | 0.0 | 0.0 | 0.00 | 0.00 | 0.00 | 94 | 1028.4 |
| 20260510114054 | 36 | 247 | 0.0 | 0.0 | 0.00 | 0.00 | 0.00 | 94 | 1028.4 |
| 20260510113549 | 36 | 256 | 0.0 | 0.0 | 0.00 | 0.00 | 0.00 | 94 | 1028.3 |
| 20260510113047 | 36 | 262 | 0.0 | 0.0 | 0.00 | 0.00 | 0.00 | 94 | 1028.4 |
| 20260510112544 | 35 | 242 | 0.0 | 0.0 | 0.00 | 0.00 | 0.00 | 94 | 1028.5 |
| 20260510112040 | 36 | 242 | 0.0 | 0.0 | 0.00 | 0.00 | 0.00 | 94 | 1028.2 |
| 20260510111537 | 36 | 242 | 0.0 | 0.0 | 0.00 | 0.00 | 0.00 | 94 | 1028.3 |
| 20260510111033 | 36 | 239 | 0.0 | 0.0 | 0.00 | 0.00 | 0.00 | 94 | 1028.5 |
| 20260510110529 | 37 | 237 | 0.0 | 0.0 | 0.00 | 0.00 | 0.00 | 94 | 1028.3 |
| 20260510110026 | 37 | 216 | 0.0 | 0.0 | 0.00 | 0.00 | 0.00 | 94 | 1028.1 |
| 20260510105520 | 37 | 171 | 0.0 | 0.0 | 0.00 | 0.00 | 0.00 | 94 | 1028.1 |
| 20260510105016 | 37 | 188 | 0.0 | 0.0 | 0.00 | 0.00 | 0.00 | 94 | 1028.1 |
| 20260510104513 | 37 | 216 | 0.0 | 0.0 | 0.00 | 0.00 | 0.00 | 94 | 1028.2 |
| 20260510104009 | 36 | 247 | 0.0 | 0.0 | 0.00 | 0.00 | 0.00 | 94 | 1028.1 |
| 20260510103506 | 37 | 247 | 0.0 | 0.0 | 0.00 | 0.00 | 0.00 | 94 | 1028.1 |
| 20260510103002 | 37 | 247 | 0.0 | 0.0 | 0.00 | 0.00 | 0.00 | 94 | 1028.2 |
| 20260510102458 | 37 | 247 | 0.0 | 0.0 | 0.00 | 0.00 | 0.00 | 94 | 1028.2 |
| 20260510101954 | 37 | 248 | 0.0 | 0.0 | 0.00 | 0.00 | 0.00 | 94 | 1028.3 |
| 20260510101452 | 37 | 249 | 0.0 | 0.0 | 0.00 | 0.00 | 0.00 | 94 | 1028.3 |
| 20260510100951 | 37 | 249 | 0.0 | 0.0 | 0.00 | 0.00 | 0.00 | 94 | 1028.4 |
| 20260510100446 | 37 | 261 | 0.0 | 0.0 | 0.00 | 0.00 | 0.00 | 94 | 1028.4 |
| 20260510095943 | 37 | 247 | 0.0 | 0.0 | 0.00 | 0.00 | 0.00 | 94 | 1028.4 |
| 20260510095439 | 37 | 245 | 0.0 | 0.0 | 0.00 | 0.00 | 0.00 | 94 | 1028.5 |
| 20260510094938 | 37 | 245 | 0.0 | 0.0 | 0.00 | 0.00 | 0.00 | 94 | 1028.5 |
| 20260510094433 | 37 | 245 | 0.0 | 0.0 | 0.00 | 0.00 | 0.00 | 94 | 1028.5 |
| 20260510093929 | 38 | 246 | 0.0 | 0.0 | 0.00 | 0.00 | 0.00 | 93 | 1028.3 |
| 20260510093424 | 38 | 247 | 0.0 | 0.0 | 0.00 | 0.00 | 0.00 | 93 | 1028.1 |
| 20260510092922 | 38 | 240 | 0.0 | 0.0 | 0.00 | 0.00 | 0.00 | 94 | 1028.2 |
| 20260510092419 | 39 | 217 | 0.0 | 0.0 | 0.00 | 0.00 | 0.00 | 94 | 1028.2 |
| 20260510091918 | 39 | 206 | 0.0 | 0.0 | 0.00 | 0.00 | 0.00 | 93 | 1027.9 |
| 20260510091416 | 38 | 214 | 0.0 | 0.0 | 0.00 | 0.00 | 0.00 | 93 | 1028.3 |
| 20260510090912 | 38 | 213 | 0.0 | 0.0 | 0.00 | 0.00 | 0.00 | 93 | 1028.1 |
| 20260510090409 | 38 | 214 | 0.0 | 0.0 | 0.00 | 0.00 | 0.00 | 93 | 1028.1 |
| 20260510085905 | 39 | 198 | 0.0 | 0.0 | 0.00 | 0.00 | 0.00 | 93 | 1028.1 |
| 20260510085400 | 37 | 198 | 0.0 | 0.0 | 0.00 | 0.00 | 0.00 | 93 | 1028.2 |
| 20260510084855 | 37 | 220 | 0.0 | 0.0 | 0.00 | 0.00 | 0.00 | 93 | 1028.1 |
| 20260510084353 | 38 | 218 | 0.0 | 0.0 | 0.00 | 0.00 | 0.00 | 93 | 1028.0 |
| 20260510083850 | 39 | 213 | 0.0 | 1.0 | 0.00 | 0.00 | 0.00 | 93 | 1028.0 |
| 20260510083346 | 39 | 222 | 0.0 | 0.0 | 0.00 | 0.00 | 0.00 | 93 | 1027.9 |
| 20260510082842 | 38 | 232 | 0.0 | 0.0 | 0.00 | 0.00 | 0.00 | 92 | 1028.1 |
| 20260510082339 | 39 | 232 | 0.0 | 0.0 | 0.00 | 0.00 | 0.00 | 92 | 1028.2 |
| 20260510081838 | 39 | 233 | 0.0 | 0.0 | 0.00 | 0.00 | 0.00 | 92 | 1028.1 |
| 20260510081334 | 39 | 233 | 0.0 | 0.0 | 0.00 | 0.00 | 0.00 | 92 | 1028.0 |
| 20260510080831 | 39 | 233 | 0.0 | 0.0 | 0.00 | 0.00 | 0.00 | 91 | 1028.0 |
| 20260510080325 | 40 | 226 | 0.0 | 0.0 | 0.00 | 0.00 | 0.00 | 91 | 1028.1 |
| 20260510075823 | 41 | 225 | 0.0 | 0.0 | 0.00 | 0.00 | 0.00 | 91 | 1027.9 |
| 20260510075320 | 41 | 226 | 0.0 | 0.0 | 0.00 | 0.00 | 0.00 | 91 | 1028.1 |
| 20260510074816 | 41 | 201 | 0.0 | 0.0 | 0.00 | 0.00 | 0.00 | 91 | 1028.1 |
| 20260510074314 | 41 | 199 | 0.0 | 0.0 | 0.00 | 0.00 | 0.00 | 91 | 1028.2 |
| 20260510073809 | 40 | 200 | 0.0 | 0.0 | 0.00 | 0.00 | 0.00 | 91 | 1028.2 |
| 20260510073306 | 41 | 200 | 1.0 | 1.0 | 0.00 | 0.00 | 0.00 | 90 | 1027.9 |
| 20260510072802 | 40 | 191 | 1.0 | 1.0 | 0.00 | 0.00 | 0.00 | 89 | 1027.9 |
| 20260510072259 | 42 | 198 | 0.0 | 0.0 | 0.00 | 0.00 | 0.00 | 90 | 1028.1 |
| 20260510071754 | 41 | 198 | 0.0 | 0.0 | 0.00 | 0.00 | 0.00 | 90 | 1027.9 |
| 20260510071251 | 42 | 208 | 1.0 | 1.0 | 0.00 | 0.00 | 0.00 | 90 | 1027.9 |
| 20260510070750 | 42 | 185 | 2.0 | 2.0 | 0.00 | 0.00 | 0.00 | 89 | 1027.9 |
| 20260510070246 | 42 | 222 | 0.0 | 0.0 | 0.00 | 0.00 | 0.00 | 90 | 1028.0 |
| 20260510065741 | 42 | 244 | 0.0 | 0.0 | 0.00 | 0.00 | 0.00 | 89 | 1027.9 |
| 20260510065238 | 41 | 245 | 1.0 | 1.0 | 0.00 | 0.00 | 0.00 | 89 | 1028.0 |
| 20260510064734 | 42 | 238 | 0.0 | 1.0 | 0.00 | 0.00 | 0.00 | 88 | 1027.9 |
| 20260510064232 | 42 | 221 | 0.0 | 0.0 | 0.00 | 0.00 | 0.00 | 87 | 1027.8 |
| 20260510063728 | 43 | 214 | 0.0 | 0.0 | 0.00 | 0.00 | 0.00 | 87 | 1027.9 |
| 20260510063225 | 42 | 178 | 1.0 | 1.0 | 0.00 | 0.00 | 0.00 | 87 | 1028.1 |
| 20260510062721 | 43 | 194 | 1.0 | 2.0 | 0.00 | 0.00 | 0.00 | 87 | 1028.0 |
| 20260510062217 | 43 | 195 | 1.0 | 1.0 | 0.00 | 0.00 | 0.00 | 86 | 1027.9 |
| 20260510061713 | 43 | 197 | 1.0 | 1.0 | 0.00 | 0.00 | 0.00 | 86 | 1028.1 |
| 20260510061210 | 44 | 214 | 0.0 | 0.0 | 0.00 | 0.00 | 0.00 | 83 | 1027.9 |
| 20260510060706 | 44 | 200 | 0.0 | 0.0 | 0.00 | 0.00 | 0.00 | 84 | 1028.0 |
| 20260510060203 | 44 | 247 | 0.0 | 0.0 | 0.00 | 0.00 | 0.00 | 83 | 1027.8 |
| 20260510055659 | 44 | 207 | 0.0 | 0.0 | 0.00 | 0.00 | 0.00 | 82 | 1027.8 |
| 20260510055157 | 45 | 185 | 0.0 | 0.0 | 0.00 | 0.00 | 0.00 | 81 | 1027.9 |
| 20260510054653 | 45 | 240 | 0.0 | 0.0 | 0.00 | 0.00 | 0.00 | 80 | 1027.6 |
| 20260510054149 | 45 | 207 | 0.0 | 0.0 | 0.00 | 0.00 | 0.00 | 80 | 1027.6 |
| 20260510053648 | 46 | 216 | 0.0 | 0.0 | 0.00 | 0.00 | 0.00 | 78 | 1027.6 |
| 20260510053145 | 45 | 185 | 0.0 | 1.0 | 0.00 | 0.00 | 0.00 | 78 | 1027.6 |
| 20260510052641 | 46 | 241 | 0.0 | 0.0 | 0.00 | 0.00 | 0.00 | 79 | 1027.3 |
| 20260510052137 | 46 | 236 | 0.0 | 0.0 | 0.00 | 0.00 | 0.00 | 77 | 1027.6 |
| 20260510051633 | 47 | 230 | 0.0 | 0.0 | 0.00 | 0.00 | 0.00 | 75 | 1027.5 |
| 20260510051130 | 47 | 208 | 0.0 | 0.0 | 0.00 | 0.00 | 0.00 | 74 | 1027.3 |
| 20260510050627 | 48 | 201 | 1.0 | 1.0 | 0.00 | 0.00 | 0.00 | 70 | 1027.4 |
| 20260510050124 | 47 | 238 | 0.0 | 0.0 | 0.00 | 0.00 | 0.00 | 75 | 1027.3 |
| 20260510045621 | 47 | 199 | 0.0 | 0.0 | 0.00 | 0.00 | 0.00 | 76 | 1027.4 |
| 20260510045117 | 48 | 267 | 0.0 | 0.0 | 0.00 | 0.00 | 0.00 | 75 | 1027.3 |
| 20260510044613 | 47 | 237 | 0.0 | 0.0 | 0.00 | 0.00 | 0.00 | 77 | 1027.3 |
| 20260510044111 | 47 | 229 | 0.0 | 0.0 | 0.00 | 0.00 | 0.00 | 74 | 1027.3 |
| 20260510043606 | 48 | 221 | 0.0 | 0.0 | 0.00 | 0.00 | 0.00 | 74 | 1027.0 |
| 20260510043103 | 48 | 256 | 0.0 | 0.0 | 0.00 | 0.00 | 0.00 | 73 | 1027.2 |
| 20260510042601 | 48 | 231 | 0.0 | 0.0 | 0.00 | 0.00 | 0.00 | 72 | 1027.2 |
| 20260510042057 | 49 | 263 | 0.0 | 0.0 | 0.00 | 0.00 | 0.00 | 70 | 1027.2 |
| 20260510041554 | 50 | 280 | 0.0 | 0.0 | 0.00 | 0.00 | 0.00 | 70 | 1027.1 |
| 20260510041051 | 50 | 195 | 0.0 | 0.0 | 0.00 | 0.00 | 0.00 | 69 | 1026.8 |
| 20260510040548 | 49 | 219 | 0.0 | 0.0 | 0.00 | 0.00 | 0.00 | 71 | 1026.6 |
| 20260510040044 | 50 | 209 | 0.0 | 0.0 | 0.00 | 0.00 | 0.00 | 70 | 1026.9 |
| 20260510035540 | 50 | 227 | 0.0 | 0.0 | 0.00 | 0.00 | 0.00 | 70 | 1026.5 |
| 20260510035040 | 51 | 298 | 0.0 | 1.0 | 0.00 | 0.00 | 0.00 | 69 | 1026.6 |
| 20260510034539 | 51 | 214 | 0.0 | 0.0 | 0.00 | 0.00 | 0.00 | 68 | 1026.5 |
| 20260510034035 | 52 | 216 | 0.0 | 0.0 | 0.00 | 0.00 | 0.00 | 67 | 1026.4 |
| 20260510033531 | 52 | 230 | 0.0 | 0.0 | 0.00 | 0.00 | 0.00 | 64 | 1026.4 |
| 20260510033029 | 54 | 233 | 0.0 | 0.0 | 0.00 | 0.00 | 0.00 | 65 | 1026.5 |
| 20260510032525 | 55 | 217 | 0.0 | 0.0 | 0.00 | 0.00 | 0.00 | 59 | 1026.2 |
| 20260510032020 | 53 | 182 | 0.0 | 0.0 | 0.00 | 0.00 | 0.00 | 64 | 1026.2 |
| 20260510031516 | 54 | 139 | 0.0 | 0.0 | 0.00 | 0.00 | 0.00 | 64 | 1026.2 |
| 20260510031012 | 55 | 212 | 0.0 | 0.0 | 0.00 | 0.00 | 0.00 | 66 | 1026.2 |
| 20260510030508 | 57 | 167 | 0.0 | 0.0 | 0.00 | 0.00 | 0.00 | 55 | 1026.0 |
| 20260510030005 | 56 | 186 | 0.0 | 0.0 | 0.00 | 0.00 | 0.00 | 57 | 1026.1 |
| 20260510025502 | 57 | 282 | 0.0 | 0.0 | 0.00 | 0.00 | 0.00 | 61 | 1026.0 |
| 20260510025000 | 57 | 249 | 0.0 | 0.0 | 0.00 | 0.00 | 0.00 | 58 | 1025.9 |
| 20260510024456 | 58 | 250 | 0.0 | 0.0 | 0.00 | 0.00 | 0.00 | 60 | 1026.0 |
| 20260510023952 | 58 | 207 | 0.0 | 0.0 | 0.00 | 0.00 | 0.00 | 56 | 1025.9 |
| 20260510023448 | 59 | 241 | 0.0 | 0.0 | 0.00 | 0.00 | 0.00 | 58 | 1025.9 |
| 20260510022945 | 60 | 242 | 0.0 | 0.0 | 0.00 | 0.00 | 0.00 | 57 | 1025.8 |
| 20260510022445 | 61 | 246 | 0.0 | 0.0 | 0.00 | 0.00 | 0.00 | 53 | 1026.0 |
| 20260510021944 | 62 | 250 | 0.0 | 0.0 | 0.00 | 0.00 | 0.00 | 51 | 1025.8 |
| 20260510021442 | 62 | 255 | 0.0 | 0.0 | 0.00 | 0.00 | 0.00 | 49 | 1025.5 |
| 20260510020938 | 63 | 293 | 1.0 | 1.0 | 0.00 | 0.00 | 0.00 | 46 | 1025.5 |
| 20260510020433 | 64 | 260 | 0.0 | 1.0 | 0.00 | 0.00 | 0.00 | 45 | 1025.8 |
| 20260510015929 | 66 | 234 | 0.0 | 0.0 | 0.00 | 0.00 | 0.00 | 46 | 1025.5 |
| 20260510015425 | 67 | 216 | 0.0 | 0.0 | 0.00 | 0.00 | 0.00 | 42 | 1025.4 |
| 20260510014920 | 67 | 211 | 0.0 | 0.0 | 0.00 | 0.00 | 0.00 | 39 | 1025.5 |
| 20260510014418 | 67 | 191 | 0.0 | 1.0 | 0.00 | 0.00 | 0.00 | 36 | 1025.2 |
| 20260510013914 | 67 | 166 | 2.0 | 2.0 | 0.00 | 0.00 | 0.00 | 35 | 1025.4 |
| 20260510013409 | 67 | 184 | 2.0 | 2.0 | 0.00 | 0.00 | 0.00 | 36 | 1025.4 |
| 20260510012905 | 68 | 185 | 3.0 | 3.0 | 0.00 | 0.00 | 0.00 | 37 | 1025.5 |
| 20260510012400 | 69 | 184 | 3.0 | 3.0 | 0.00 | 0.00 | 0.00 | 34 | 1025.4 |
| 20260510011854 | 70 | 192 | 2.0 | 2.0 | 0.00 | 0.00 | 0.00 | 32 | 1025.3 |
| 20260510011350 | 69 | 160 | 3.0 | 3.0 | 0.00 | 0.00 | 0.00 | 35 | 1025.3 |
| 20260510010846 | 70 | 171 | 5.0 | 6.0 | 0.00 | 0.00 | 0.00 | 31 | 1025.3 |
| 20260510010344 | 70 | 138 | 7.0 | 8.0 | 0.00 | 0.00 | 0.00 | 30 | 1025.2 |
| 20260510005840 | 71 | 164 | 3.0 | 3.0 | 0.00 | 0.00 | 0.00 | 33 | 1025.3 |
| 20260510005337 | 72 | 181 | 3.0 | 3.0 | 0.00 | 0.00 | 0.00 | 30 | 1025.4 |
| 20260510004834 | 72 | 226 | 1.0 | 2.0 | 0.00 | 0.00 | 0.00 | 30 | 1025.3 |
| 20260510004332 | 71 | 198 | 4.0 | 6.0 | 0.00 | 0.00 | 0.00 | 31 | 1025.2 |
| 20260510003829 | 72 | 172 | 3.0 | 3.0 | 0.00 | 0.00 | 0.00 | 29 | 1025.4 |
| 20260510003326 | 72 | 43 | 1.0 | 1.0 | 0.00 | 0.00 | 0.00 | 29 | 1025.3 |
| 20260510002825 | 73 | 252 | 2.0 | 2.0 | 0.00 | 0.00 | 0.00 | 29 | 1025.3 |
| 20260510002322 | 74 | 240 | 1.0 | 1.0 | 0.00 | 0.00 | 0.00 | 30 | 1025.4 |
| 20260510001819 | 73 | 238 | 0.0 | 0.0 | 0.00 | 0.00 | 0.00 | 32 | 1025.4 |
| 20260510001317 | 73 | 226 | 1.0 | 2.0 | 0.00 | 0.00 | 0.00 | 31 | 1025.4 |
| 20260510000812 | 73 | 119 | 1.0 | 2.0 | 0.00 | 0.00 | 0.00 | 30 | 1025.5 |
| 20260510000311 | 72 | 260 | 2.0 | 2.0 | 0.00 | 0.00 | 0.00 | 28 | 1025.1 |
| 20260509235808 | 72 | 67 | 1.0 | 2.0 | 0.00 | 0.00 | 0.00 | 33 | 1025.7 |
| 20260509235306 | 71 | 285 | 1.0 | 1.0 | 0.00 | 0.00 | 0.00 | 31 | 1025.7 |
| 20260509234800 | 70 | 265 | 0.0 | 0.0 | 0.00 | 0.00 | 0.00 | 32 | 1025.3 |
| 20260509234256 | 72 | 55 | 2.0 | 3.0 | 0.00 | 0.00 | 0.00 | 29 | 1025.4 |
| 20260509233755 | 71 | 178 | 3.0 | 5.0 | 0.00 | 0.00 | 0.00 | 31 | 1025.4 |
| 20260509233252 | 71 | 151 | 4.0 | 5.0 | 0.00 | 0.00 | 0.00 | 29 | 1025.5 |
| 20260509232748 | 72 | 262 | 0.0 | 0.0 | 0.00 | 0.00 | 0.00 | 30 | 1025.5 |
| 20260509232245 | 72 | 188 | 2.0 | 2.0 | 0.00 | 0.00 | 0.00 | 30 | 1025.8 |
| 20260509231741 | 71 | 134 | 0.0 | 1.0 | 0.00 | 0.00 | 0.00 | 31 | 1025.7 |
| 20260509231239 | 72 | 352 | 2.0 | 2.0 | 0.00 | 0.00 | 0.00 | 33 | 1025.5 |
| 20260509230736 | 71 | 115 | 1.0 | 1.0 | 0.00 | 0.00 | 0.00 | 33 | 1025.8 |
| 20260509230233 | 70 | 324 | 4.0 | 5.0 | 0.00 | 0.00 | 0.00 | 32 | 1025.7 |
| 20260509225728 | 71 | 57 | 3.0 | 3.0 | 0.00 | 0.00 | 0.00 | 30 | 1025.8 |
| 20260509225224 | 70 | 330 | 4.0 | 6.0 | 0.00 | 0.00 | 0.00 | 32 | 1025.8 |
| 20260509224720 | 71 | 287 | 1.0 | 2.0 | 0.00 | 0.00 | 0.00 | 33 | 1025.8 |
| 20260509224217 | 70 | 335 | 5.0 | 6.0 | 0.00 | 0.00 | 0.00 | 33 | 1026.2 |
| 20260509223714 | 71 | 330 | 3.0 | 3.0 | 0.00 | 0.00 | 0.00 | 32 | 1026.3 |
| 20260509223211 | 69 | 290 | 2.0 | 2.0 | 0.00 | 0.00 | 0.00 | 31 | 1026.2 |
| 20260509222708 | 68 | 345 | 2.0 | 2.0 | 0.00 | 0.00 | 0.00 | 34 | 1026.2 |
| 20260509222203 | 68 | 165 | 0.0 | 1.0 | 0.00 | 0.00 | 0.00 | 33 | 1026.0 |
| 20260509221659 | 69 | 241 | 1.0 | 2.0 | 0.00 | 0.00 | 0.00 | 31 | 1026.2 |
| 20260509221155 | 69 | 205 | 2.0 | 2.0 | 0.00 | 0.00 | 0.00 | 33 | 1026.3 |
| 20260509220652 | 70 | 226 | 0.0 | 0.0 | 0.00 | 0.00 | 0.00 | 32 | 1026.4 |
| 20260509220148 | 71 | 209 | 4.0 | 5.0 | 0.00 | 0.00 | 0.00 | 33 | 1026.4 |
| 20260509215644 | 70 | 349 | 4.0 | 5.0 | 0.00 | 0.00 | 0.00 | 33 | 1026.3 |
| 20260509215141 | 70 | 233 | 0.0 | 0.0 | 0.00 | 0.00 | 0.00 | 32 | 1026.4 |
| 20260509214638 | 71 | 166 | 1.0 | 2.0 | 0.00 | 0.00 | 0.00 | 31 | 1026.3 |
| 20260509214135 | 71 | 272 | 2.0 | 3.0 | 0.00 | 0.00 | 0.00 | 32 | 1026.5 |
| 20260509213631 | 71 | 237 | 3.0 | 5.0 | 0.00 | 0.00 | 0.00 | 34 | 1026.4 |
| 20260509213127 | 71 | 6 | 3.0 | 6.0 | 0.00 | 0.00 | 0.00 | 35 | 1026.6 |
| 20260509212625 | 72 | 173 | 6.0 | 7.0 | 0.00 | 0.00 | 0.00 | 31 | 1026.8 |
| 20260509212122 | 71 | 239 | 1.0 | 1.0 | 0.00 | 0.00 | 0.00 | 35 | 1026.4 |
| 20260509211618 | 71 | 72 | 4.0 | 5.0 | 0.00 | 0.00 | 0.00 | 33 | 1026.3 |
| 20260509211114 | 70 | 165 | 3.0 | 5.0 | 0.00 | 0.00 | 0.00 | 33 | 1026.3 |
| 20260509210611 | 69 | 190 | 7.0 | 8.0 | 0.00 | 0.00 | 0.00 | 33 | 1026.8 |
| 20260509210108 | 69 | 55 | 2.0 | 3.0 | 0.00 | 0.00 | 0.00 | 35 | 1026.4 |
| 20260509205602 | 69 | 112 | 5.0 | 7.0 | 0.00 | 0.00 | 0.00 | 33 | 1026.8 |
| 20260509205057 | 70 | 170 | 3.0 | 5.0 | 0.00 | 0.00 | 0.00 | 33 | 1026.8 |
| 20260509204554 | 70 | 148 | 3.0 | 5.0 | 0.00 | 0.00 | 0.00 | 33 | 1026.6 |
| 20260509204051 | 69 | 142 | 7.0 | 7.0 | 0.00 | 0.00 | 0.00 | 33 | 1026.6 |
| 20260509203546 | 69 | 211 | 0.0 | 1.0 | 0.00 | 0.00 | 0.00 | 34 | 1026.9 |
| 20260509203044 | 69 | 262 | 5.0 | 6.0 | 0.00 | 0.00 | 0.00 | 34 | 1026.8 |
| 20260509202539 | 69 | 222 | 3.0 | 3.0 | 0.00 | 0.00 | 0.00 | 35 | 1026.6 |
| 20260509202035 | 69 | 182 | 4.0 | 5.0 | 0.00 | 0.00 | 0.00 | 37 | 1026.8 |
| 20260509201530 | 68 | 71 | 2.0 | 2.0 | 0.00 | 0.00 | 0.00 | 35 | 1027.0 |
| 20260509201028 | 67 | 10 | 6.0 | 8.0 | 0.00 | 0.00 | 0.00 | 35 | 1027.0 |
| 20260509200527 | 68 | 127 | 4.0 | 5.0 | 0.00 | 0.00 | 0.00 | 35 | 1026.8 |
| 20260509200024 | 68 | 221 | 4.0 | 5.0 | 0.00 | 0.00 | 0.00 | 34 | 1027.2 |
| 20260509195520 | 67 | 139 | 1.0 | 2.0 | 0.00 | 0.00 | 0.00 | 36 | 1027.0 |
| 20260509195019 | 68 | 185 | 5.0 | 6.0 | 0.00 | 0.00 | 0.00 | 35 | 1027.0 |
| 20260509194515 | 68 | 161 | 6.0 | 8.0 | 0.00 | 0.00 | 0.00 | 35 | 1027.0 |
| 20260509194012 | 68 | 193 | 5.0 | 6.0 | 0.00 | 0.00 | 0.00 | 35 | 1027.0 |
| 20260509193507 | 68 | 216 | 0.0 | 1.0 | 0.00 | 0.00 | 0.00 | 38 | 1027.0 |
| 20260509193004 | 69 | 197 | 1.0 | 1.0 | 0.00 | 0.00 | 0.00 | 34 | 1027.2 |
| 20260509192500 | 67 | 271 | 1.0 | 1.0 | 0.00 | 0.00 | 0.00 | 39 | 1027.2 |
| 20260509191955 | 68 | 58 | 3.0 | 5.0 | 0.00 | 0.00 | 0.00 | 36 | 1027.2 |
| 20260509191450 | 68 | 146 | 3.0 | 3.0 | 0.00 | 0.00 | 0.00 | 34 | 1027.3 |
| 20260509190946 | 68 | 202 | 0.0 | 0.0 | 0.00 | 0.00 | 0.00 | 34 | 1027.3 |
| 20260509190443 | 68 | 356 | 2.0 | 3.0 | 0.00 | 0.00 | 0.00 | 39 | 1027.4 |
| 20260509185941 | 66 | 145 | 0.0 | 1.0 | 0.00 | 0.00 | 0.00 | 39 | 1027.4 |
| 20260509185438 | 66 | 241 | 0.0 | 1.0 | 0.00 | 0.00 | 0.00 | 37 | 1027.3 |
| 20260509184935 | 66 | 259 | 2.0 | 2.0 | 0.00 | 0.00 | 0.00 | 41 | 1027.4 |
| 20260509184433 | 66 | 214 | 0.0 | 0.0 | 0.00 | 0.00 | 0.00 | 36 | 1027.5 |
| 20260509183929 | 66 | 11 | 3.0 | 3.0 | 0.00 | 0.00 | 0.00 | 37 | 1027.5 |
| 20260509183423 | 66 | 55 | 2.0 | 3.0 | 0.00 | 0.00 | 0.00 | 37 | 1027.4 |
| 20260509182920 | 67 | 127 | 2.0 | 2.0 | 0.00 | 0.00 | 0.00 | 35 | 1027.8 |
| 20260509182416 | 66 | 251 | 0.0 | 0.0 | 0.00 | 0.00 | 0.00 | 35 | 1027.5 |
| 20260509181914 | 66 | 143 | 1.0 | 2.0 | 0.00 | 0.00 | 0.00 | 39 | 1027.5 |
| 20260509181412 | 65 | 74 | 3.0 | 5.0 | 0.00 | 0.00 | 0.00 | 38 | 1027.6 |
| 20260509180909 | 65 | 200 | 1.0 | 1.0 | 0.00 | 0.00 | 0.00 | 37 | 1027.5 |
| 20260509180404 | 65 | 161 | 6.0 | 8.0 | 0.00 | 0.00 | 0.00 | 36 | 1027.8 |
| 20260509175901 | 66 | 161 | 3.0 | 3.0 | 0.00 | 0.00 | 0.00 | 35 | 1027.4 |
| 20260509175357 | 66 | 233 | 1.0 | 2.0 | 0.00 | 0.00 | 0.00 | 37 | 1027.5 |
| 20260509174854 | 65 | 268 | 1.0 | 1.0 | 0.00 | 0.00 | 0.00 | 36 | 1027.6 |
| 20260509174350 | 65 | 99 | 1.0 | 2.0 | 0.00 | 0.00 | 0.00 | 35 | 1027.6 |
| 20260509173846 | 65 | 196 | 0.0 | 0.0 | 0.00 | 0.00 | 0.00 | 41 | 1027.6 |
| 20260509173341 | 64 | 334 | 2.0 | 2.0 | 0.00 | 0.00 | 0.00 | 37 | 1027.8 |
| 20260509172837 | 64 | 152 | 2.0 | 2.0 | 0.00 | 0.00 | 0.00 | 40 | 1027.6 |
| 20260509172334 | 63 | 284 | 1.0 | 1.0 | 0.00 | 0.00 | 0.00 | 38 | 1027.5 |
| 20260509171830 | 64 | 169 | 5.0 | 6.0 | 0.00 | 0.00 | 0.00 | 38 | 1027.8 |
| 20260509171326 | 63 | 183 | 2.0 | 3.0 | 0.00 | 0.00 | 0.00 | 38 | 1027.6 |
| 20260509170823 | 63 | 63 | 3.0 | 3.0 | 0.00 | 0.00 | 0.00 | 38 | 1027.6 |
| 20260509170318 | 62 | 185 | 6.0 | 8.0 | 0.00 | 0.00 | 0.00 | 38 | 1027.8 |
| 20260509165818 | 63 | 208 | 1.0 | 2.0 | 0.00 | 0.00 | 0.00 | 39 | 1027.9 |
| 20260509165313 | 63 | 187 | 3.0 | 5.0 | 0.00 | 0.00 | 0.00 | 39 | 1027.9 |
| 20260509164809 | 63 | 299 | 0.0 | 1.0 | 0.00 | 0.00 | 0.00 | 39 | 1027.6 |
| 20260509164306 | 63 | 188 | 3.0 | 5.0 | 0.00 | 0.00 | 0.00 | 41 | 1028.0 |
| 20260509163802 | 63 | 95 | 2.0 | 2.0 | 0.00 | 0.00 | 0.00 | 40 | 1028.1 |
| 20260509163259 | 61 | 355 | 5.0 | 5.0 | 0.00 | 0.00 | 0.00 | 42 | 1028.1 |
| 20260509162758 | 60 | 184 | 0.0 | 1.0 | 0.00 | 0.00 | 0.00 | 43 | 1028.1 |
| 20260509162251 | 60 | 59 | 2.0 | 2.0 | 0.00 | 0.00 | 0.00 | 43 | 1028.2 |
| 20260509161747 | 60 | 355 | 3.0 | 5.0 | 0.00 | 0.00 | 0.00 | 47 | 1027.9 |
| 20260509161243 | 60 | 296 | 2.0 | 2.0 | 0.00 | 0.00 | 0.00 | 43 | 1028.0 |
| 20260509160739 | 59 | 1 | 4.0 | 6.0 | 0.00 | 0.00 | 0.00 | 47 | 1028.1 |
| 20260509160236 | 58 | 302 | 3.0 | 3.0 | 0.00 | 0.00 | 0.00 | 47 | 1027.8 |
| 20260509155731 | 58 | 336 | 2.0 | 3.0 | 0.00 | 0.00 | 0.00 | 45 | 1028.0 |
| 20260509155227 | 58 | 333 | 5.0 | 6.0 | 0.00 | 0.00 | 0.00 | 45 | 1028.0 |
| 20260509154723 | 58 | 61 | 2.0 | 3.0 | 0.00 | 0.00 | 0.00 | 44 | 1028.2 |
| 20260509154220 | 58 | 41 | 3.0 | 3.0 | 0.00 | 0.00 | 0.00 | 48 | 1028.2 |
| 20260509153718 | 58 | 324 | 2.0 | 3.0 | 0.00 | 0.00 | 0.00 | 47 | 1028.3 |
| 20260509153214 | 57 | 324 | 3.0 | 3.0 | 0.00 | 0.00 | 0.00 | 47 | 1028.0 |
| 20260509152710 | 57 | 346 | 2.0 | 2.0 | 0.00 | 0.00 | 0.00 | 49 | 1028.1 |
| 20260509152207 | 56 | 340 | 3.0 | 3.0 | 0.00 | 0.00 | 0.00 | 52 | 1027.9 |
| 20260509151704 | 56 | 37 | 0.0 | 1.0 | 0.00 | 0.00 | 0.00 | 55 | 1028.0 |
| 20260509151201 | 55 | 335 | 4.0 | 5.0 | 0.00 | 0.00 | 0.00 | 51 | 1028.1 |
| 20260509150659 | 54 | 314 | 2.0 | 2.0 | 0.00 | 0.00 | 0.00 | 51 | 1028.1 |
| 20260509150157 | 54 | 325 | 2.0 | 2.0 | 0.00 | 0.00 | 0.00 | 56 | 1028.0 |
| 20260509145653 | 53 | 201 | 0.0 | 0.0 | 0.00 | 0.00 | 0.00 | 59 | 1027.9 |
| 20260509145148 | 53 | 333 | 3.0 | 3.0 | 0.00 | 0.00 | 0.00 | 59 | 1027.9 |